Wind_Speed
35 32 29 26 22 20 16 14 13 12 13 15 16 17 18 19 19 19 20 22 24 27 28 30 32 33 33 34 34 26 33 31 30 31 32 31 29 25 37 33 32 41 47 38 38 36 33
35 32 29 26 23 20 18 16 13 13 14 15 16 17 18 17 18 19 21 23 26 28 29 31 33 34 36 40 31 29 28 34 30 28 30 32 32 24 28 31 37 41 39 41 37 38 37
37 32 28 26 23 20 17 14 13 14 14 14 14 14 16 18 20 21 23 25 27 30 31 33 34 35 40 36 31 31 28 31 33 29 28 25 25 26 26 31 32 34 40 40 42 42 39
46 34 27 26 23 20 16 14 13 13 12 12 12 14 16 19 22 24 26 28 29 31 33 33 34 34 40 33 33 27 25 31 33 35 35 34 29 28 29 30 29 35 34 44 48 36 38
52 38 26 26 23 20 16 15 13 11 10 11 12 15 18 21 24 26 28 30 31 34 35 34 31 32 31 28 29 30 21 21 23 28 33 30 35 32 23 29 31 32 41 43 41 36 36
50 38 28 27 23 20 17 15 12 10 10 10 13 17 20 22 25 28 30 32 33 34 37 31 25 26 26 21 16 26 20 23 20 19 21 24 27 30 31 32 38 41 39 37 38 30 37
48 34 29 27 23 20 18 14 11 10 10 12 14 17 20 22 25 29 32 33 36 34 36 38 29 41 42 31 29 33 27 25 23 21 24 23 28 38 43 43 39 36 36 33 31 32 34
41 31 29 28 24 21 17 13 9 10 10 12 14 17 20 23 27 30 32 34 34 36 48 45 43 44 38 30 38 34 23 25 24 31 24 22 37 43 36 32 36 37 36 38 31 33 25
33 33 31 28 24 21 15 11 9 9 10 12 14 17 21 24 27 30 33 32 36 37 38 39 20 17 15 16 22 22 16 22 26 30 30 32 35 31 34 35 36 39 39 32 29 21 21
35 33 31 28 23 17 14 11 10 9 10 12 15 18 20 25 28 28 24 30 31 31 21 14 7 3 10 12 20 16 12 23 25 34 32 35 30 28 32 37 35 36 32 30 25 22 19
35 34 31 25 22 18 14 12 10 8 10 12 16 19 22 24 26 26 26 25 21 16 6 11 12 14 23 22 31 15 23 21 25 29 27 41 32 30 36 35 33 34 26 22 21 20 23
36 34 26 27 21 17 14 12 9 9 10 13 16 19 22 25 28 24 21 16 13 7 4 20 24 32 34 30 27 31 25 24 21 23 30 34 22 28 32 22 29 23 12 14 14 18 19
37 29 31 24 20 17 14 11 9 9 10 13 16 18 20 21 17 15 13 14 8 5 27 25 36 31 32 34 36 23 25 31 25 22 36 31 28 24 23 27 25 21 19 4 9 8 12
32 34 26 23 21 17 14 11 9 8 10 12 15 17 17 17 15 14 11 13 8 18 21 28 29 33 23 23 22 29 26 23 26 27 26 27 12 25 21 24 25 28 28 11 8 9 12
37 31 27 25 21 17 13 11 9 7 9 12 14 14 15 15 12 11 12 6 10 17 21 27 32 21 26 28 33 33 21 18 20 27 30 15 17 26 18 21 23 28 35 32 6 7 3
34 30 29 24 21 17 13 11 8 6 8 10 12 14 11 11 9 7 8 7 12 14 17 21 18 21 36 46 36 20 13 7 13 20 23 15 5 20 15 24 21 25 30 17 9 5 3
34 32 28 25 21 17 14 11 7 7 7 8 9 8 10 9 8 12 6 9 12 15 18 17 26 31 35 29 30 21 11 6 10 17 14 15 12 13 13 15 20 29 25 14 15 13 2
36 31 28 25 22 18 14 11 8 7 6 7 6 1 7 5 8 8 9 9 14 15 14 13 20 27 36 34 16 23 21 11 5 15 17 8 8 12 22 7 13 10 16 25 5 7 4
34 30 28 25 21 18 15 12 9 6 6 5 1 4 4 1 3 3 9 8 11 10 15 19 22 29 34 31 15 30 12 12 3 2 4 2 2 3 6 13 15 19 15 14 10 5 3
31 30 28 25 22 19 15 13 10 8 6 5 3 3 5 3 5 4 7 7 11 9 10 19 20 28 31 33 26 26 19 14 13 1 3 2 2 3 4 3 16 14 13 10 5 4 6
29 29 28 25 22 19 16 14 11 9 7 6 3 1 2 2 4 4 5 7 10 15 10 19 17 21 24 29 28 33 27 7 7 7 3 6 6 3 10 13 15 10 10 8 5 3 5
29 29 29 26 23 20 18 14 13 11 8 7 4 5 5 3 4 5 6 6 9 14 12 18 18 16 19 21 21 25 21 16 13 8 10 9 3 13 22 17 21 15 8 11 9 13 14
31 31 29 26 24 21 18 16 13 10 10 11 6 4 4 4 2 4 6 8 12 13 8 15 18 16 15 17 17 15 11 14 12 10 1 11 9 11 15 16 16 17 17 19 20 17 10
30 30 29 27 24 22 20 17 14 13 13 13 10 11 5 3 4 6 7 8 9 10 11 14 15 14 12 8 11 9 10 16 13 13 11 7 8 7 3 5 4 12 16 16 16 17 16
28 29 28 26 25 23 20 18 16 13 13 12 12 12 11 9 3 8 7 8 7 8 9 11 15 13 11 6 11 5 6 5 8 13 8 6 3 3 3 3 15 8 10 11 12 14 11
27 29 28 27 25 23 20 18 16 14 13 13 13 10 8 5 4 7 5 6 6 8 6 10 13 12 9 7 9 10 6 11 7 3 10 9 6 1 1 5 1 7 7 4 3 9 10
26 28 27 26 24 22 20 18 16 15 13 13 11 11 10 9 3 6 3 6 5 7 9 12 13 11 6 10 9 8 5 10 8 10 12 10 8 10 5 4 6 8 6 2 3 4 8
25 25 25 25 24 23 21 19 17 15 12 12 12 13 12 10 9 7 5 4 1 4 8 12 6 10 7 10 6 6 6 7 7 10 10 8 10 9 10 7 4 10 5 4 7 5 5
25 27 27 26 24 23 21 20 17 15 14 14 10 16 13 8 4 3 4 5 6 7 9 2 5 8 8 5 6 4 6 8 11 3 11 8 9 4 6 4 7 9 10 10 5 4 4
Wind_Direction
267 269 268 262 256 256 252 254 260 272 285 293 298 301 302 303 306 309 311 315 317 314 314 314 311 310 307 298 306 286 288 279 278 274 266 253 259 252 245 245 240 237 243 244 246 247 250
255 260 258 249 247 243 241 244 253 269 282 292 298 299 300 303 307 311 317 317 311 309 313 311 307 305 304 301 305 296 286 282 279 273 266 252 245 245 252 247 240 241 248 247 244 244 244
246 245 245 242 239 236 238 245 259 272 283 291 296 302 306 307 311 315 314 308 307 309 310 308 306 305 300 309 297 293 284 275 271 265 258 251 243 241 244 252 248 249 248 247 245 241 241
251 237 233 235 231 231 233 243 256 267 281 293 300 306 307 314 315 314 311 310 309 309 309 309 306 300 296 304 303 297 279 267 261 262 255 242 224 233 242 251 249 246 244 244 239 239 241
260 236 224 229 226 225 230 239 248 262 279 292 305 310 313 314 316 316 312 311 310 312 309 305 301 300 300 306 307 297 289 274 269 263 259 253 236 227 240 238 242 239 237 236 246 236 236
248 227 214 218 222 224 228 231 241 259 278 299 307 310 314 317 316 312 311 313 312 308 309 313 320 307 315 298 293 285 285 282 271 265 256 243 238 235 232 225 225 225 231 240 248 236 233
233 202 204 214 218 223 226 230 244 266 289 304 311 314 315 315 316 317 316 315 316 324 317 310 292 291 296 282 261 255 262 255 261 259 248 239 230 226 228 228 232 238 240 244 240 239 241
203 187 198 208 213 218 220 229 248 272 294 303 310 315 317 320 321 323 321 327 326 319 314 313 309 292 284 279 267 264 272 259 246 242 242 242 232 233 233 235 236 240 246 246 252 256 250
187 188 195 204 209 212 217 230 252 272 289 304 315 319 320 321 327 327 331 332 326 320 316 328 324 331 309 274 278 283 271 265 251 239 233 237 242 242 233 235 234 235 238 240 243 255 241
182 187 195 201 204 208 216 231 248 271 295 312 319 321 324 329 331 336 334 330 328 329 315 353 326 350 325 307 291 269 273 270 253 237 234 240 242 240 231 230 231 237 230 233 239 252 262
184 190 195 195 204 204 214 230 247 275 297 315 321 326 330 335 337 347 345 340 349 346 308 350 6 319 334 317 305 299 309 288 247 238 231 242 243 235 237 226 222 233 227 229 237 246 257
187 192 189 202 197 204 214 229 249 275 300 317 326 332 337 340 344 358 356 15 5 338 311 326 325 321 318 306 305 290 292 279 243 236 233 243 246 251 226 222 220 223 218 225 228 252 248
191 185 197 193 200 205 213 229 249 278 305 323 331 337 339 346 6 1 23 13 339 307 326 326 323 323 318 311 300 312 305 285 244 215 229 240 254 226 210 222 209 205 196 205 215 221 235
181 197 192 198 202 204 213 227 249 277 309 325 333 338 343 357 6 7 23 3 305 331 332 325 328 323 321 329 326 320 307 278 239 219 222 227 219 221 194 199 193 201 198 205 201 202 222
193 193 194 201 202 206 213 228 249 281 313 325 334 337 347 6 1 10 42 356 353 334 327 332 329 326 329 325 326 328 317 264 220 212 222 232 231 189 203 193 186 193 205 210 314 250 252
195 191 202 201 202 206 215 228 247 283 309 323 334 339 5 357 354 18 42 335 338 338 332 336 330 320 313 323 319 323 293 245 212 200 224 235 179 181 187 191 194 195 206 220 201 214 205
190 203 201 202 204 206 215 227 244 274 302 321 330 16 347 344 357 43 25 336 332 339 337 333 322 314 334 331 329 330 301 318 187 186 220 256 250 165 180 197 188 199 215 220 226 244 273
205 201 203 203 204 207 215 225 239 265 292 310 322 294 331 349 46 16 341 333 337 337 5 358 3 357 350 360 0 351 327 2 204 212 233 213 332 162 195 181 207 220 192 195 228 225 161
206 201 203 205 204 208 216 227 236 249 270 291 265 243 302 299 75 5 337 345 338 7 13 10 4 2 6 2 357 352 333 9 116 161 156 178 245 98 185 229 218 217 204 209 194 264 267
205 202 205 205 205 208 216 224 232 243 251 259 237 174 273 34 337 24 328 352 352 337 20 20 6 7 0 359 11 348 22 42 15 256 157 185 291 293 305 333 182 185 181 159 137 208 298
206 204 206 207 205 210 216 222 228 237 232 238 220 160 242 224 213 322 337 330 341 353 5 19 4 11 13 356 359 357 16 27 56 41 47 20 334 280 240 204 150 155 141 131 119 75 43
208 205 205 205 206 212 217 219 225 227 225 219 222 120 296 253 261 319 293 322 338 343 346 355 359 13 14 5 354 347 355 30 41 14 80 78 32 55 37 109 107 96 86 93 88 43 66
205 205 205 206 209 212 216 218 221 223 222 223 197 169 191 223 294 294 300 313 331 338 347 349 344 3 18 17 28 28 27 29 22 20 11 80 50 45 52 87 104 53 48 80 68 50 31
205 205 207 208 208 213 215 217 220 218 223 226 225 181 178 185 267 275 290 314 323 328 332 342 342 356 1 4 13 360 19 44 44 32 28 68 47 63 76 97 61 84 71 80 56 65 46
207 206 208 208 210 212 212 214 217 215 223 221 222 197 173 212 264 291 294 313 337 329 332 342 336 343 358 350 350 355 355 35 37 38 35 38 50 31 171 168 124 69 53 40 7 43 44
206 208 207 207 210 210 210 213 214 215 218 223 229 213 203 157 162 270 315 330 319 323 319 334 326 341 356 19 2 350 39 349 18 65 34 15 356 289 149 147 216 62 43 307 110 48 21
211 207 207 208 209 210 212 212 214 215 217 220 226 211 212 198 257 251 252 255 300 324 320 313 337 341 7 42 9 5 13 4 1 17 7 2 24 33 17 74 72 34 338 68 34 13 24
210 208 207 207 207 210 210 212 211 212 212 211 214 211 214 216 223 249 275 285 294 246 296 298 340 318 23 37 26 357 343 358 3 39 15 31 356 20 10 47 47 15 21 82 90 56 22
209 206 205 207 208 209 211 213 208 207 211 207 203 209 212 215 250 256 294 300 310 316 306 353 3 348 8 23 343 33 346 355 343 21 19 39 31 29 46 60 34 28 58 59 71 52 16
Height
3084 3085 3086 3086 3088 3088 3089 3089 3090 3089 3089 3089 3087 3086 3085 3084 3082 3082 3081 3077 3073 3071 3070 3067 3064 3061 3059 3057 3058 3059 3052 3053 3052 3052 3053 3056 3058 3057 3055 3064 3069 3066 3062 3071 3073 3076 3076
3076 3078 3080 3081 3083 3084 3084 3085 3085 3085 3084 3084 3083 3082 3081 3079 3078 3078 3076 3073 3071 3068 3064 3061 3058 3055 3050 3046 3047 3046 3046 3043 3044 3044 3044 3046 3049 3053 3050 3055 3059 3058 3062 3062 3065 3066 3069
3068 3070 3074 3076 3078 3080 3081 3081 3082 3082 3081 3081 3080 3078 3077 3076 3075 3072 3070 3069 3065 3061 3059 3055 3051 3046 3041 3042 3038 3035 3035 3035 3035 3034 3035 3038 3043 3046 3047 3046 3051 3053 3054 3054 3054 3056 3058
3059 3061 3067 3072 3074 3076 3077 3077 3078 3079 3078 3078 3077 3076 3075 3072 3069 3068 3066 3063 3059 3055 3052 3047 3044 3039 3028 3030 3025 3025 3025 3024 3025 3025 3025 3029 3032 3035 3038 3042 3043 3045 3046 3042 3039 3049 3051
3050 3051 3061 3067 3070 3071 3073 3073 3075 3075 3074 3074 3073 3072 3070 3067 3065 3062 3060 3057 3052 3047 3044 3041 3036 3030 3024 3019 3018 3016 3017 3019 3018 3018 3017 3020 3024 3025 3031 3033 3036 3035 3032 3029 3035 3042 3046
3040 3042 3053 3060 3065 3068 3069 3070 3070 3070 3070 3069 3069 3067 3065 3063 3060 3058 3054 3050 3046 3041 3034 3029 3023 3023 3018 3018 3016 3010 3011 3010 3011 3011 3013 3015 3017 3019 3021 3023 3017 3017 3023 3029 3027 3033 3036
3029 3035 3047 3055 3061 3064 3066 3066 3066 3066 3065 3065 3065 3063 3061 3059 3056 3051 3048 3044 3038 3031 3021 3021 3024 3012 3010 3010 3007 3003 3004 3004 3004 3006 3005 3009 3012 3007 3005 3009 3016 3022 3022 3020 3021 3025 3026
3020 3029 3039 3049 3055 3059 3061 3062 3061 3062 3062 3063 3062 3060 3057 3055 3051 3046 3040 3034 3028 3025 3010 3011 3007 2998 2999 2998 2992 2993 2996 2994 2997 2995 3001 3005 2999 2995 3006 3012 3013 3016 3016 3016 3018 3016 3018
3017 3026 3035 3044 3049 3054 3057 3057 3057 3058 3059 3059 3058 3056 3053 3049 3045 3040 3033 3029 3024 3017 3009 3004 2997 2995 2993 2997 2992 2989 2994 2992 2989 2991 2992 2993 2989 2999 3002 3005 3006 3009 3011 3014 3015 3015 3016
3013 3023 3031 3038 3045 3049 3052 3053 3054 3055 3056 3056 3054 3051 3049 3043 3041 3035 3030 3025 3020 3014 3007 3001 2999 2996 2996 2991 2991 2991 2989 2987 2984 2982 2987 2985 2989 2992 2995 2997 3001 3002 3007 3010 3013 3014 3014
3011 3020 3026 3033 3039 3043 3047 3050 3051 3051 3053 3052 3050 3047 3042 3039 3036 3030 3027 3022 3017 3014 3012 3005 3002 2995 2997 2998 2992 2985 2983 2978 2976 2978 2984 2973 2980 2984 2986 2989 2997 2998 3004 3008 3011 3013 3015
3008 3016 3022 3030 3034 3039 3043 3046 3047 3048 3048 3047 3045 3042 3038 3034 3028 3026 3023 3019 3017 3019 3008 3007 3002 2996 2991 2988 2985 2980 2977 2973 2972 2975 2975 2972 2979 2978 2981 2987 2992 2998 3001 3008 3011 3013 3011
3004 3012 3019 3025 3030 3035 3039 3042 3043 3044 3044 3043 3040 3037 3035 3031 3029 3026 3022 3020 3020 3017 3012 3006 2999 2994 2989 2983 2976 2973 2969 2965 2964 2968 2967 2968 2974 2971 2978 2984 2988 2995 3001 3007 3011 3011 2997
3001 3009 3015 3022 3026 3030 3035 3037 3038 3039 3038 3038 3036 3034 3032 3027 3026 3024 3022 3020 3021 3018 3013 3007 3000 2991 2987 2979 2975 2969 2959 2952 2958 2961 2965 2967 2971 2969 2973 2978 2983 2989 2996 2999 2993 2994 2993
2998 3004 3012 3016 3022 3027 3030 3033 3034 3035 3034 3034 3032 3032 3028 3025 3024 3022 3021 3021 3021 3017 3013 3004 2996 2989 2983 2981 2978 2965 2956 2952 2953 2957 2964 2964 2966 2966 2972 2977 2981 2986 2989 2993 2994 2990 2989
2994 3001 3007 3012 3017 3022 3027 3029 3030 3030 3030 3030 3029 3028 3026 3025 3023 3023 3022 3023 3021 3016 3011 3006 3001 2994 2983 2974 2971 2966 2955 2951 2954 2959 2961 2963 2962 2965 2970 2973 2980 2982 2990 2992 2993 2988 2985
2990 2996 3002 3007 3013 3018 3023 3025 3025 3027 3027 3027 3027 3025 3025 3024 3023 3023 3022 3022 3020 3015 3011 3008 3003 2995 2988 2977 2971 2967 2958 2954 2958 2959 2962 2963 2963 2968 2970 2971 2974 2981 2983 2986 2988 2986 2983
2986 2992 2998 3004 3009 3014 3018 3020 3021 3023 3024 3024 3024 3026 3024 3022 3024 3023 3024 3022 3018 3014 3010 3007 3003 2997 2989 2982 2974 2970 2965 2962 2965 2961 2964 2965 2962 2966 2967 2972 2976 2974 2976 2983 2983 2982 2982
2981 2988 2993 3000 3005 3010 3014 3016 3018 3019 3020 3021 3022 3024 3022 3021 3023 3024 3023 3022 3019 3012 3008 3004 3002 2998 2993 2986 2979 2974 2968 2965 2961 2962 2964 2967 2967 2967 2971 2974 2975 2975 2979 2981 2983 2985 2982
2977 2984 2990 2996 3002 3006 3010 3012 3014 3016 3017 3019 3020 3020 3022 3020 3021 3021 3022 3021 3019 3012 3009 3005 3004 2999 2993 2986 2981 2975 2967 2965 2964 2964 2966 2966 2967 2968 2968 2967 2971 2975 2977 2980 2983 2988 2984
2975 2981 2987 2993 2997 3002 3006 3008 3011 3013 3014 3017 3017 3017 3019 3021 3022 3019 3021 3021 3018 3013 3009 3006 3004 3001 2996 2990 2981 2979 2975 2971 2970 2969 2968 2968 2968 2970 2966 2968 2972 2977 2979 2982 2986 2988 2989
2972 2977 2983 2989 2994 2998 3002 3004 3008 3009 3011 3014 3016 3017 3017 3021 3018 3020 3020 3020 3018 3014 3011 3007 3005 3001 2999 2996 2992 2985 2982 2978 2976 2976 2975 2975 2975 2972 2965 2969 2972 2981 2985 2985 2988 2989 2990
2967 2973 2979 2984 2990 2995 2998 3002 3004 3006 3008 3010 3013 3015 3015 3019 3020 3021 3020 3019 3017 3015 3012 3009 3004 3000 2999 2997 2993 2989 2986 2983 2981 2980 2978 2978 2979 2977 2979 2980 2981 2985 2988 2989 2991 2991 2992
2964 2970 2975 2980 2985 2990 2995 2998 3000 3003 3006 3008 3009 3011 3015 3016 3019 3019 3017 3017 3016 3015 3012 3010 3005 3000 3000 2997 2995 2992 2991 2988 2986 2984 2982 2982 2982 2982 2984 2984 2986 2993 2992 2991 2992 2994 2995
2960 2965 2971 2976 2981 2986 2991 2995 2997 3000 3003 3005 3007 3008 3010 3012 3017 3017 3016 3016 3015 3015 3013 3011 3005 3002 2998 2997 2995 2994 2993 2992 2990 2988 2987 2987 2985 2985 2986 2987 2992 2992 2993 2994 2996 2998 2997
2956 2962 2967 2972 2977 2983 2987 2991 2994 2997 3000 3002 3004 3006 3008 3011 3013 3013 3013 3015 3014 3013 3013 3011 3005 3002 3000 2999 2997 2997 2995 2994 2993 2991 2992 2990 2988 2988 2986 2988 2991 2996 2996 2996 2997 2999 3000
2953 2958 2963 2969 2974 2979 2984 2987 2992 2995 2997 3000 3002 3004 3007 3009 3011 3011 3011 3010 3012 3012 3011 3010 3005 3001 3001 3000 2999 2999 2998 2998 2995 2994 2993 2991 2989 2990 2988 2990 2996 2997 2996 2996 2998 3008 3001
2949 2954 2961 2966 2970 2975 2980 2984 2989 2992 2994 2998 3000 3002 3005 3006 3008 3008 3008 3008 3008 3009 3008 3007 3007 3003 3002 3002 3002 3001 3000 2999 2997 2999 2998 2995 2994 2994 2994 2994 3000 2998 2997 2998 3003 3002 3002
2946 2951 2957 2962 2967 2972 2977 2982 2985 2989 2992 2995 2998 2999 3002 3005 3008 3008 3008 3007 3007 3007 3006 3006 3008 3006 3005 3005 3005 3003 3003 3002 3001 2994 2999 3000 3002 3001 3002 3003 3002 3002 3001 3002 3002 3002 3002